Flag for Canada Weather past 2 weeks in Camrose, Alberta, Canada

Now
77 °F

Passing clouds.


Feels Like: 76 °F
Forecast: 42 / 76 °F
Wind: 6 mph from Southeast

Location: Edmonton International

Current Time: May 22, 2015 at 2:55:41 PM

Latest Report: May 22, 2015 at 2:00 PM


Visibility: 15 mi

Pressure: 30.00 "Hg

Humidity: 13%

Dew point: 23 °F

Location of CamroseLocation

Historic Weather in Camrose — Graph

°F

Camrose temperature yesterday

Maximum temperature yesterday: 75 °F (at 3:00 PM)
Minimum temperature yesterday: 41 °F (at 2:00 AM)
Average temperature yesterday: 60 °F

Past Weeks' High & Low Weather Summary

 TemperatureHumidityPressure
High75 °F (May 21, 3:00 PM)100% (May 8, 5:00 AM)30.51 "Hg (May 8, 5:00 AM)
Low21 °F (May 8, 5:00 AM)12% (May 19, 5:00 PM)29.84 "Hg (May 15, 8:00 PM)
Average49 °F44%30.17 "Hg
* Reported May 7 1:00 PM — May 22 1:00 PM, Camrose, Weather by CustomWeather, © 2015

Note: Actual official high and low records may vary slightly from our data, if they occured in-between our weather recording intervals... More about our weather records

Advertising

Camrose weather history for previous 24 hours

 ConditionsComfort  
Time TempWeatherWind HumidityBarometerVisibility
1:00 PM
Fri, May 22
75 °FMild.6 mph14%30.00 "Hg15 mi
12:00 PM75 °FPassing clouds.8 mph15%30.00 "Hg15 mi
11:00 AM72 °FPassing clouds.6 mph25%30.01 "Hg15 mi
10:00 AM66 °FScattered clouds.3 mph28%30.01 "Hg15 mi
9:00 AM61 °FPartly sunny.5 mph31%29.99 "Hg15 mi
8:00 AM57 °FScattered clouds.6 mph36%29.98 "Hg15 mi
7:00 AM43 °FScattered clouds.2 mph61%30.00 "Hg15 mi
6:00 AM37 °FPassing clouds.5 mph65%30.00 "Hg15 mi
5:00 AM39 °FPassing clouds.3 mph61%29.99 "Hg15 mi
4:00 AM37 °FPassing clouds.8 mph60%29.98 "Hg15 mi
3:00 AM41 °FPassing clouds.2 mph57%29.97 "Hg15 mi
2:00 AM43 °FPassing clouds.No wind53%29.98 "Hg15 mi
1:00 AM50 °FPassing clouds.5 mph43%29.97 "Hg15 mi
12:00 AM50 °FPassing clouds.12 mph43%29.96 "Hg15 mi
11:00 PM
Thu, May 21
50 °FPassing clouds.13 mph43%29.96 "Hg15 mi
10:00 PM54 °FPassing clouds.9 mph35%29.95 "Hg15 mi
9:00 PM64 °FPassing clouds.9 mph26%29.94 "Hg15 mi
8:00 PM73 °FPassing clouds.12 mph16%29.93 "Hg15 mi
7:00 PM75 °FPassing clouds.13 mph15%29.94 "Hg15 mi
6:00 PM75 °FPassing clouds.14 mph16%29.95 "Hg15 mi
5:00 PM75 °FPassing clouds.16 mph16%29.97 "Hg15 mi
4:00 PM75 °FPassing clouds.15 mph15%29.98 "Hg15 mi
3:00 PM75 °FPassing clouds.18 mph16%29.99 "Hg15 mi
2:00 PM72 °FPassing clouds.14 mph17%30.01 "Hg15 mi
Weather by CustomWeather, © 2015

See weather overviewHow to use our weather pages